Вернуться в каталог

STARLINK-36185

АктивенСвязьVLEO
NORAD 67204·PAYLOAD·🇺🇸 United States

Запущен Dec 17, 2025 с Vandenberg Space Force Base

Loading…

Ближайшие Пролёты (ближайшие 24 часа)

TLE

СвежийSource: CelesTrak SupGP

Эпоха: Sep 15, 2026, 03:05 UTC

1 67204C 25304N   26258.12895833 -.00039992  00000+0 -33520-2 0  2581
2 67204  70.0019  56.7422 0002571 269.3095  54.7751 14.98345385    13

Отслеживайте STARLINK-36185 в реальном времени с AllMySat

Download on the App Store